Powrót do katalogu

DELTA 1 DEB

AktywnySSO
NORAD 15788·DEBRIS·🇺🇸 United States

Wystrzelony Mar 5, 1978 z Vandenberg Space Force Base

Loading…

Następne Przeloty (najbliższe 24 godziny)

TLE

ŚwieżeSource: Space-Track

Epoka: Sep 14, 2026, 05:18 UTC

1 15788U 78026GT  26257.22143918  .00000823  00000-0  62108-3 0  9997
2 15788  98.8852 168.0074 0118844 340.1374 173.7564 13.93673998215442

Śledź DELTA 1 DEB w czasie rzeczywistym z AllMySat

Download on the App Store